Regional Weather Roundup
Issued by NWS

Home | Current Version | Previous Version | Graphics & Text | Print | Product List | Glossary On
Versions: 1 2 3 4 5 6 7 8 9 10 11 12 13 14 15 16 17 18 19 20 21 22 23 24 25 26 27 28 29 30 31 32 33 34 35 36 37 38 39 40 41 42 43 44 45 46 47 48 49 50
000
ASUS43 KLMK 231602
RWRKY
KENTUCKY REGIONAL WEATHER ROUNDUP
NATIONAL WEATHER SERVICE LOUISVILLE KY
1100 AM EST MON JAN 23 2017

NOTE "FAIR" INDICATES FEW OR NO CLOUDS BELOW 12,000 FEET
WITH NO SIGNIFICANT WEATHER AND/OR OBSTRUCTIONS TO VISIBILITY.

KYZ001>023-026-027-061>063-070>075-231700-
WESTERN AND SOUTH CENTRAL KENTUCKY

CITY           SKY/WX    TMP DP  RH WIND       PRES   REMARKS
PADUCAH        CLOUDY    45  36  70 N17       29.76R
HENDERSON      CLOUDY    43  36  75 NW17G25   29.73S
OWENSBORO      CLOUDY    44  40  85 NW23      29.70R
HOPKINSVILLE   CLOUDY    44  39  81 NW16G26   29.69R
BOWLING GREEN  CLOUDY    47  42  83 NW10G23   29.64R
GLASGOW        NOT AVBL
$$

KYZ024-025-028>034-038-045-046-053-231700-
NORTH CENTRAL KENTUCKY

CITY           SKY/WX    TMP DP  RH WIND       PRES   REMARKS
LOUISVILLE/SDF CLOUDY    50  44  80 NW22G31   29.59R
LOUISVILLE/LOU CLOUDY    49  44  83 NW16G25   29.59R
FORT KNOX      CLOUDY    47  45  92 NW14G24   29.58R
$$

KYZ035>037-039>044-047>052-055>060-089>105-231700-
NORTHEAST KENTUCKY

CITY           SKY/WX    TMP DP  RH WIND       PRES   REMARKS
LEXINGTON      LGT RAIN  48  45  89 N18G28    29.50R
COVINGTON      LGT RAIN  46  44  93 N18       29.54R FOG
FRANKFORT      CLOUDY    51  45  79 N14G25    29.51R
$$

KYZ054-064>069-076>088-106>120-231700-
SOUTHEAST KENTUCKY

CITY           SKY/WX    TMP DP  RH WIND       PRES   REMARKS
JACKSON        LGT RAIN  50  48  93 VRB6      29.41R
LONDON         LGT RAIN  51  48  89 N13       29.42R FOG
SOMERSET       CLOUDY    50  48  93 N14       29.48R
MIDDLESBORO    DRIZZLE   54  51  89 N8G16     29.39R
MONTICELLO     NOT AVBL
$$




USA.gov is the U.S. government's official web portal to all federal, state and local government web resources and services.